{"data":{"norad_id":47284,"intl_designator":"2020-100AC","name":"ONEWEB-0138","alt_names":[],"object_type":"PAYLOAD","status":"ACTIVE","operator":null,"country":"UK","launch_date":"2020-12-18","launch_site_code":"VOSTO","launch_vehicle":null,"mission":null,"orbit_class":"UNKNOWN","rcs_meters":null,"size_class":null,"mass_kg":null,"dimensions":null,"purposes":["comms"],"wikipedia_slug":null,"has_3d_model":false,"image_url":null,"decayed_at":null,"tle_current":{"epoch":"2026-05-25T00:39:21.235104Z","epoch_age_seconds":68771,"freshness":"FRESH","line1":"1 47284U 20100AC  26145.02732911  .00000410  00000+0  11040-2 0  9993","line2":"2 47284  87.8961 355.2707 0001544  86.2770 273.8535 13.12442381261617","mean_motion":13.12442381,"eccentricity":0.0001544,"inclination_deg":87.8961,"raan_deg":355.2707,"arg_perigee_deg":86.277,"mean_anomaly_deg":273.8535,"bstar":0.001104,"rev_number":26161,"period_min":109.71910240378,"perigee_km":1212.5534945321,"apogee_km":1214.8978617271,"semimajor_km":7591.8626781296,"source":"CELESTRAK","updated_at":"2026-05-25T13:38:22.384953Z"}}}